| time (UTC) | temp C | wind direction | speed KPH | gust KPH | rain 1hr cm | rain 24hr cm | rain mn cm | humidity % | barometer mb |
| 20260506153507 | 17 | 105 | 0.0 | 0.0 | 0.03 | 0.03 | 0.03 | 56 | 1014.0 |
| 20260506153006 | 17 | 94 | 0.0 | 0.0 | 0.03 | 0.03 | 0.03 | 59 | 1014.0 |
| 20260506152507 | 17 | 101 | 0.0 | 0.0 | 0.00 | 0.00 | 0.00 | 62 | 1013.9 |
| 20260506152006 | 17 | 103 | 0.0 | 0.0 | 0.00 | 0.00 | 0.00 | 63 | 1013.9 |
| 20260506151507 | 17 | 108 | 0.0 | 0.0 | 0.00 | 0.00 | 0.00 | 65 | 1013.9 |
| 20260506151006 | 18 | 109 | 0.0 | 0.0 | 0.00 | 0.00 | 0.00 | 66 | 1014.0 |
| 20260506150507 | 18 | 109 | 0.0 | 0.0 | 0.00 | 0.00 | 0.00 | 68 | 1013.9 |
| 20260506150007 | 18 | 111 | 0.0 | 0.0 | 0.00 | 0.00 | 0.00 | 68 | 1013.9 |
| 20260506145506 | 18 | 101 | 0.0 | 0.0 | 0.00 | 0.00 | 0.00 | 69 | 1013.6 |
| 20260506145006 | 18 | 84 | 0.0 | 0.0 | 0.00 | 0.00 | 0.00 | 69 | 1013.6 |
| 20260506144506 | 18 | 105 | 0.0 | 0.0 | 0.00 | 0.00 | 0.00 | 68 | 1013.4 |
| 20260506144006 | 19 | 127 | 0.0 | 6.4 | 0.00 | 0.00 | 0.00 | 66 | 1013.6 |
| 20260506143506 | 19 | 97 | 0.0 | 6.4 | 0.00 | 0.00 | 0.00 | 66 | 1013.3 |
| 20260506143007 | 19 | 107 | 0.0 | 6.4 | 0.00 | 0.00 | 0.00 | 66 | 1013.5 |
| 20260506142507 | 19 | 107 | 0.0 | 6.4 | 0.00 | 0.00 | 0.00 | 66 | 1013.5 |
| 20260506142006 | 20 | 108 | 0.0 | 0.0 | 0.00 | 0.00 | 0.00 | 66 | 1013.6 |
| 20260506141506 | 20 | 90 | 0.0 | 0.0 | 0.00 | 0.00 | 0.00 | 65 | 1013.6 |
| 20260506141006 | 19 | 104 | 0.0 | 6.4 | 0.00 | 0.00 | 0.00 | 66 | 1013.5 |
| 20260506140507 | 19 | 112 | 0.0 | 6.4 | 0.00 | 0.00 | 0.00 | 67 | 1013.6 |
| 20260506140006 | 18 | 100 | 0.0 | 6.4 | 0.00 | 0.00 | 0.00 | 67 | 1013.3 |
| 20260506135507 | 18 | 120 | 0.0 | 6.4 | 0.00 | 0.00 | 0.00 | 67 | 1013.4 |
| 20260506135006 | 18 | 118 | 0.0 | 0.0 | 0.00 | 0.00 | 0.00 | 68 | 1013.6 |
| 20260506134506 | 18 | 107 | 0.0 | 0.0 | 0.00 | 0.00 | 0.00 | 68 | 1013.6 |
| 20260506134006 | 18 | 114 | 0.0 | 0.0 | 0.00 | 0.00 | 0.00 | 68 | 1013.6 |
| 20260506133506 | 18 | 91 | 0.0 | 0.0 | 0.00 | 0.00 | 0.00 | 68 | 1013.5 |
| 20260506133006 | 18 | 93 | 0.0 | 0.0 | 0.00 | 0.00 | 0.00 | 69 | 1013.5 |
| 20260506132506 | 18 | 107 | 0.0 | 0.0 | 0.00 | 0.00 | 0.00 | 69 | 1013.5 |
| 20260506132006 | 18 | 115 | 0.0 | 0.0 | 0.00 | 0.00 | 0.00 | 69 | 1013.5 |
| 20260506131506 | 18 | 109 | 0.0 | 0.0 | 0.00 | 0.00 | 0.00 | 69 | 1013.5 |
| 20260506131006 | 18 | 103 | 0.0 | 0.0 | 0.00 | 0.00 | 0.00 | 68 | 1013.6 |
| 20260506130506 | 18 | 104 | 0.0 | 0.0 | 0.00 | 0.00 | 0.00 | 68 | 1013.6 |
| 20260506130006 | 18 | 113 | 0.0 | 0.0 | 0.00 | 0.00 | 0.00 | 68 | 1013.5 |
| 20260506125506 | 18 | 106 | 0.0 | 0.0 | 0.00 | 0.00 | 0.00 | 68 | 1013.3 |
| 20260506125006 | 18 | 109 | 0.0 | 0.0 | 0.00 | 0.00 | 0.00 | 68 | 1013.3 |
| 20260506124506 | 18 | 92 | 0.0 | 3.2 | 0.00 | 0.00 | 0.00 | 68 | 1013.3 |
| 20260506124006 | 18 | 98 | 0.0 | 3.2 | 0.00 | 0.00 | 0.00 | 68 | 1013.4 |
| 20260506123506 | 17 | 94 | 0.0 | 3.2 | 0.00 | 0.00 | 0.00 | 68 | 1013.2 |
| 20260506123006 | 17 | 97 | 0.0 | 3.2 | 0.00 | 0.00 | 0.00 | 68 | 1013.1 |
| 20260506122506 | 17 | 107 | 0.0 | 3.2 | 0.00 | 0.00 | 0.00 | 68 | 1013.1 |
| 20260506122006 | 17 | 95 | 0.0 | 3.2 | 0.00 | 0.00 | 0.00 | 68 | 1013.0 |
| 20260506121506 | 17 | 84 | 0.0 | 3.2 | 0.00 | 0.00 | 0.00 | 68 | 1012.9 |
| 20260506121006 | 17 | 101 | 0.0 | 0.0 | 0.00 | 0.00 | 0.00 | 69 | 1012.9 |
| 20260506120506 | 17 | 98 | 0.0 | 0.0 | 0.00 | 0.00 | 0.00 | 69 | 1012.8 |
| 20260506120006 | 17 | 115 | 0.0 | 0.0 | 0.00 | 0.00 | 0.00 | 69 | 1012.9 |
| 20260506115506 | 17 | 105 | 0.0 | 0.0 | 0.00 | 0.00 | 0.00 | 69 | 1012.9 |
| 20260506115006 | 17 | 95 | 0.0 | 3.2 | 0.00 | 0.00 | 0.00 | 69 | 1013.0 |
| 20260506114506 | 17 | 108 | 0.0 | 3.2 | 0.00 | 0.00 | 0.00 | 69 | 1013.2 |
| 20260506114006 | 17 | 103 | 0.0 | 3.2 | 0.00 | 0.00 | 0.00 | 69 | 1013.2 |
| 20260506113506 | 17 | 101 | 0.0 | 3.2 | 0.00 | 0.00 | 0.00 | 69 | 1013.1 |
| 20260506113006 | 17 | 101 | 0.0 | 3.2 | 0.00 | 0.00 | 0.00 | 69 | 1013.1 |
| 20260506112506 | 17 | 102 | 0.0 | 3.2 | 0.00 | 0.00 | 0.00 | 69 | 1013.0 |
| 20260506112005 | 17 | 90 | 0.0 | 3.2 | 0.00 | 0.00 | 0.00 | 69 | 1012.9 |
| 20260506111505 | 17 | 98 | 0.0 | 3.2 | 0.00 | 0.00 | 0.00 | 69 | 1012.9 |
| 20260506111006 | 17 | 104 | 0.0 | 0.0 | 0.00 | 0.00 | 0.00 | 69 | 1013.0 |
| 20260506110505 | 17 | 103 | 0.0 | 0.0 | 0.00 | 0.00 | 0.00 | 69 | 1012.9 |
| 20260506110005 | 17 | 114 | 0.0 | 0.0 | 0.00 | 0.00 | 0.00 | 69 | 1012.8 |
| 20260506105506 | 17 | 98 | 0.0 | 3.2 | 0.00 | 0.00 | 0.00 | 69 | 1012.8 |
| 20260506105006 | 17 | 104 | 0.0 | 3.2 | 0.00 | 0.00 | 0.00 | 69 | 1012.8 |
| 20260506104505 | 17 | 96 | 0.0 | 3.2 | 0.00 | 0.00 | 0.00 | 69 | 1012.8 |
| 20260506104005 | 17 | 88 | 0.0 | 3.2 | 0.00 | 0.00 | 0.00 | 69 | 1013.0 |
| 20260506103506 | 17 | 101 | 1.6 | 3.2 | 0.00 | 0.00 | 0.00 | 68 | 1013.1 |
| 20260506103005 | 17 | 101 | 0.0 | 3.2 | 0.00 | 0.00 | 0.00 | 68 | 1013.0 |
| 20260506102505 | 17 | 96 | 0.0 | 3.2 | 0.00 | 0.00 | 0.00 | 68 | 1013.0 |
| 20260506102005 | 17 | 105 | 0.0 | 6.4 | 0.00 | 0.00 | 0.00 | 68 | 1013.0 |
| 20260506101505 | 17 | 97 | 0.0 | 6.4 | 0.00 | 0.00 | 0.00 | 69 | 1013.1 |
| 20260506101006 | 17 | 89 | 0.0 | 3.2 | 0.00 | 0.00 | 0.00 | 68 | 1013.0 |
| 20260506100506 | 17 | 112 | 0.0 | 3.2 | 0.00 | 0.00 | 0.00 | 68 | 1013.1 |
| 20260506100005 | 17 | 82 | 0.0 | 3.2 | 0.00 | 0.00 | 0.00 | 69 | 1013.0 |
| 20260506095505 | 17 | 107 | 0.0 | 0.0 | 0.00 | 0.00 | 0.00 | 69 | 1013.0 |
| 20260506095005 | 17 | 95 | 0.0 | 0.0 | 0.00 | 0.00 | 0.00 | 69 | 1013.1 |
| 20260506094506 | 17 | 106 | 0.0 | 0.0 | 0.00 | 0.00 | 0.00 | 69 | 1013.0 |
| 20260506094005 | 17 | 91 | 0.0 | 3.2 | 0.00 | 0.00 | 0.00 | 69 | 1013.0 |
| 20260506093505 | 17 | 108 | 0.0 | 6.4 | 0.00 | 0.00 | 0.00 | 69 | 1012.8 |
| 20260506093005 | 17 | 105 | 0.0 | 6.4 | 0.00 | 0.00 | 0.00 | 68 | 1013.0 |
| 20260506092505 | 17 | 100 | 0.0 | 3.2 | 0.00 | 0.00 | 0.00 | 68 | 1012.8 |
| 20260506092005 | 17 | 98 | 0.0 | 0.0 | 0.00 | 0.00 | 0.00 | 68 | 1012.8 |
| 20260506091505 | 17 | 92 | 0.0 | 0.0 | 0.00 | 0.00 | 0.00 | 68 | 1012.9 |
| 20260506091005 | 17 | 101 | 0.0 | 3.2 | 0.00 | 0.00 | 0.00 | 68 | 1013.0 |
| 20260506090505 | 17 | 118 | 0.0 | 3.2 | 0.00 | 0.00 | 0.00 | 68 | 1013.1 |
| 20260506090005 | 17 | 98 | 0.0 | 3.2 | 0.00 | 0.00 | 0.00 | 68 | 1013.0 |
| 20260506085505 | 17 | 94 | 0.0 | 3.2 | 0.00 | 0.00 | 0.00 | 68 | 1013.1 |
| 20260506085005 | 17 | 90 | 0.0 | 3.2 | 0.00 | 0.00 | 0.00 | 68 | 1013.3 |
| 20260506084505 | 17 | 95 | 0.0 | 0.0 | 0.00 | 0.00 | 0.00 | 68 | 1013.4 |
| 20260506084005 | 17 | 102 | 0.0 | 0.0 | 0.00 | 0.00 | 0.00 | 68 | 1013.4 |
| 20260506083505 | 17 | 111 | 0.0 | 0.0 | 0.00 | 0.00 | 0.00 | 68 | 1013.5 |
| 20260506083005 | 17 | 97 | 0.0 | 3.2 | 0.00 | 0.00 | 0.00 | 68 | 1013.5 |
| 20260506082505 | 17 | 96 | 0.0 | 3.2 | 0.00 | 0.00 | 0.00 | 68 | 1013.5 |
| 20260506082005 | 17 | 84 | 0.0 | 3.2 | 0.00 | 0.00 | 0.00 | 68 | 1013.5 |
| 20260506081505 | 17 | 89 | 0.0 | 3.2 | 0.00 | 0.00 | 0.00 | 68 | 1013.5 |
| 20260506081005 | 17 | 89 | 0.0 | 3.2 | 0.00 | 0.00 | 0.00 | 68 | 1013.5 |
| 20260506080505 | 17 | 95 | 0.0 | 3.2 | 0.00 | 0.00 | 0.00 | 68 | 1013.5 |
| 20260506073505 | 17 | 104 | 0.0 | 3.2 | 0.00 | 0.00 | 0.00 | 68 | 1013.6 |
| 20260506073005 | 17 | 112 | 0.0 | 3.2 | 0.00 | 0.00 | 0.00 | 68 | 1013.6 |
| 20260506072505 | 17 | 97 | 0.0 | 0.0 | 0.00 | 0.00 | 0.00 | 68 | 1013.5 |
| 20260506072004 | 17 | 105 | 0.0 | 0.0 | 0.00 | 0.00 | 0.00 | 68 | 1013.6 |
| 20260506071504 | 17 | 115 | 0.0 | 0.0 | 0.00 | 0.00 | 0.00 | 68 | 1013.5 |
| 20260506071005 | 17 | 105 | 0.0 | 3.2 | 0.00 | 0.00 | 0.00 | 68 | 1013.7 |
| 20260506070505 | 17 | 75 | 0.0 | 3.2 | 0.00 | 0.00 | 0.00 | 68 | 1013.7 |
| 20260506062505 | 17 | 92 | 0.0 | 3.2 | 0.00 | 0.00 | 0.00 | 68 | 1014.0 |
| 20260506062004 | 17 | 115 | 0.0 | 3.2 | 0.00 | 0.00 | 0.00 | 68 | 1014.0 |
| 20260506061504 | 17 | 75 | 0.0 | 3.2 | 0.00 | 0.00 | 0.00 | 68 | 1013.9 |
| 20260506061005 | 17 | 105 | 0.0 | 3.2 | 0.00 | 0.00 | 0.00 | 68 | 1013.9 |
| 20260506060505 | 18 | 96 | 0.0 | 3.2 | 0.00 | 0.00 | 0.00 | 68 | 1014.0 |
| 20260506051004 | 18 | 89 | 0.0 | 3.2 | 0.00 | 0.00 | 0.00 | 65 | 1014.4 |
| 20260506050504 | 18 | 96 | 0.0 | 3.2 | 0.00 | 0.00 | 0.00 | 65 | 1014.5 |
| 20260506045004 | 18 | 100 | 0.0 | 3.2 | 0.00 | 0.00 | 0.00 | 64 | 1014.5 |
| 20260506044504 | 19 | 101 | 0.0 | 3.2 | 0.00 | 0.00 | 0.00 | 63 | 1014.5 |
| 20260506044004 | 19 | 94 | 0.0 | 6.4 | 0.00 | 0.00 | 0.00 | 63 | 1014.5 |
| 20260506043504 | 19 | 103 | 0.0 | 6.4 | 0.00 | 0.00 | 0.00 | 63 | 1014.4 |
| 20260506043004 | 19 | 99 | 0.0 | 3.2 | 0.00 | 0.00 | 0.00 | 62 | 1014.3 |
| 20260506042504 | 19 | 94 | 0.0 | 3.2 | 0.00 | 0.00 | 0.00 | 62 | 1014.4 |
| 20260506042004 | 19 | 102 | 0.0 | 3.2 | 0.00 | 0.00 | 0.00 | 62 | 1014.5 |
| 20260506041504 | 20 | 84 | 0.0 | 3.2 | 0.00 | 0.00 | 0.00 | 61 | 1014.5 |
| 20260506041003 | 20 | 101 | 0.0 | 3.2 | 0.00 | 0.00 | 0.00 | 61 | 1014.5 |
| 20260506040504 | 20 | 103 | 0.0 | 3.2 | 0.00 | 0.00 | 0.00 | 61 | 1014.5 |
| 20260506040004 | 20 | 90 | 0.0 | 6.4 | 0.00 | 0.00 | 0.00 | 60 | 1014.5 |
| 20260506035504 | 20 | 73 | 0.0 | 6.4 | 0.00 | 0.00 | 0.00 | 60 | 1014.5 |
| 20260506035004 | 20 | 115 | 0.0 | 3.2 | 0.00 | 0.00 | 0.00 | 59 | 1014.4 |
| 20260506034503 | 20 | 63 | 0.0 | 3.2 | 0.00 | 0.00 | 0.00 | 59 | 1014.4 |
| 20260506034004 | 20 | 102 | 0.0 | 6.4 | 0.00 | 0.00 | 0.00 | 59 | 1014.5 |
| 20260506033504 | 20 | 93 | 0.0 | 6.4 | 0.00 | 0.00 | 0.00 | 58 | 1014.5 |
| 20260506033004 | 20 | 105 | 0.0 | 9.7 | 0.00 | 0.00 | 0.00 | 58 | 1014.5 |
| 20260506032504 | 20 | 104 | 0.0 | 9.7 | 0.00 | 0.00 | 0.00 | 58 | 1014.4 |
| 20260506032004 | 20 | 97 | 0.0 | 6.4 | 0.00 | 0.00 | 0.00 | 58 | 1014.5 |
| 20260506031504 | 20 | 111 | 0.0 | 3.2 | 0.00 | 0.00 | 0.00 | 57 | 1014.5 |
| 20260506031004 | 20 | 86 | 0.0 | 3.2 | 0.00 | 0.00 | 0.00 | 57 | 1014.5 |
| 20260506030503 | 20 | 94 | 0.0 | 9.7 | 0.00 | 0.00 | 0.00 | 57 | 1014.4 |
| 20260506030004 | 21 | 91 | 0.0 | 9.7 | 0.00 | 0.00 | 0.00 | 57 | 1014.4 |
| 20260506025504 | 21 | 86 | 0.0 | 6.4 | 0.00 | 0.00 | 0.00 | 56 | 1014.5 |
| 20260506025003 | 21 | 101 | 0.0 | 3.2 | 0.00 | 0.00 | 0.00 | 56 | 1014.4 |
| 20260506024503 | 21 | 104 | 0.0 | 3.2 | 0.00 | 0.00 | 0.00 | 56 | 1014.5 |
| 20260506024004 | 21 | 101 | 0.0 | 3.2 | 0.00 | 0.00 | 0.00 | 56 | 1014.5 |
| 20260506023503 | 21 | 97 | 0.0 | 3.2 | 0.00 | 0.00 | 0.00 | 56 | 1014.5 |
| 20260506023003 | 21 | 91 | 0.0 | 3.2 | 0.00 | 0.00 | 0.00 | 56 | 1014.5 |
| 20260506022504 | 21 | 96 | 0.0 | 3.2 | 0.00 | 0.00 | 0.00 | 56 | 1014.4 |
| 20260506022003 | 21 | 108 | 0.0 | 3.2 | 0.00 | 0.00 | 0.00 | 56 | 1014.3 |
| 20260506021503 | 21 | 88 | 0.0 | 0.0 | 0.00 | 0.00 | 0.00 | 55 | 1014.3 |
| 20260506021003 | 21 | 92 | 0.0 | 0.0 | 0.00 | 0.00 | 0.00 | 55 | 1014.3 |
| 20260506020503 | 21 | 88 | 0.0 | 0.0 | 0.00 | 0.00 | 0.00 | 55 | 1014.3 |
| 20260506020003 | 21 | 101 | 0.0 | 0.0 | 0.00 | 0.00 | 0.00 | 55 | 1014.2 |
| 20260506015503 | 21 | 101 | 0.0 | 0.0 | 0.00 | 0.00 | 0.00 | 54 | 1014.0 |
| 20260506015003 | 21 | 97 | 0.0 | 0.0 | 0.00 | 0.00 | 0.00 | 54 | 1014.0 |
| 20260506014503 | 21 | 102 | 0.0 | 0.0 | 0.00 | 0.00 | 0.00 | 54 | 1013.9 |
| 20260506014003 | 21 | 108 | 0.0 | 0.0 | 0.00 | 0.00 | 0.00 | 53 | 1013.9 |
| 20260506013503 | 21 | 92 | 0.0 | 0.0 | 0.00 | 0.00 | 0.00 | 53 | 1013.9 |
| 20260506013003 | 21 | 88 | 0.0 | 0.0 | 0.00 | 0.00 | 0.00 | 53 | 1013.8 |
| 20260506012503 | 21 | 98 | 0.0 | 0.0 | 0.00 | 0.00 | 0.00 | 52 | 1013.7 |
| 20260506012002 | 21 | 86 | 0.0 | 0.0 | 0.00 | 0.00 | 0.00 | 52 | 1013.7 |
| 20260506011502 | 21 | 93 | 0.0 | 0.0 | 0.00 | 0.00 | 0.00 | 52 | 1013.6 |
| 20260506011003 | 21 | 86 | 0.0 | 0.0 | 0.00 | 0.00 | 0.00 | 51 | 1013.5 |
| 20260506010503 | 22 | 77 | 0.0 | 0.0 | 0.00 | 0.00 | 0.00 | 50 | 1013.6 |
| 20260506010003 | 22 | 83 | 0.0 | 0.0 | 0.00 | 0.00 | 0.00 | 50 | 1013.5 |
| 20260506005503 | 22 | 103 | 0.0 | 0.0 | 0.00 | 0.00 | 0.00 | 49 | 1013.5 |
| 20260506005003 | 22 | 81 | 0.0 | 0.0 | 0.00 | 0.00 | 0.00 | 48 | 1013.4 |
| 20260506004503 | 22 | 85 | 0.0 | 0.0 | 0.00 | 0.00 | 0.00 | 48 | 1013.4 |
| 20260506004003 | 22 | 84 | 0.0 | 0.0 | 0.00 | 0.00 | 0.00 | 47 | 1013.4 |
| 20260506003503 | 22 | 98 | 0.0 | 0.0 | 0.00 | 0.00 | 0.00 | 47 | 1013.4 |
| 20260506003003 | 22 | 92 | 0.0 | 0.0 | 0.00 | 0.00 | 0.00 | 46 | 1013.4 |
| 20260506002502 | 23 | 89 | 0.0 | 0.0 | 0.00 | 0.00 | 0.00 | 45 | 1013.3 |
| 20260506002002 | 23 | 103 | 0.0 | 0.0 | 0.00 | 0.00 | 0.00 | 45 | 1013.3 |
| 20260506001502 | 23 | 84 | 0.0 | 0.0 | 0.00 | 0.00 | 0.00 | 44 | 1013.2 |
| 20260506001002 | 23 | 80 | 0.0 | 0.0 | 0.00 | 0.00 | 0.00 | 44 | 1013.2 |
| 20260506000502 | 23 | 87 | 0.0 | 0.0 | 0.00 | 0.00 | 0.00 | 44 | 1013.2 |
| 20260506000003 | 23 | 101 | 0.0 | 0.0 | 0.00 | 0.00 | 0.00 | 43 | 1013.2 |
| 20260505235502 | 23 | 91 | 0.0 | 0.0 | 0.00 | 0.00 | 0.00 | 43 | 1013.0 |
| 20260505235002 | 23 | 100 | 0.0 | 0.0 | 0.00 | 0.00 | 0.00 | 43 | 1013.1 |
| 20260505234503 | 24 | 94 | 0.0 | 3.2 | 0.00 | 0.00 | 0.00 | 42 | 1013.0 |
| 20260505234002 | 24 | 101 | 0.0 | 3.2 | 0.00 | 0.00 | 0.00 | 42 | 1013.1 |
| 20260505233502 | 24 | 114 | 0.0 | 3.2 | 0.00 | 0.00 | 0.00 | 42 | 1013.1 |
| 20260505233002 | 24 | 109 | 0.0 | 3.2 | 0.00 | 0.00 | 0.00 | 42 | 1013.0 |
| 20260505232502 | 24 | 96 | 0.0 | 6.4 | 0.00 | 0.00 | 0.00 | 41 | 1013.0 |
| 20260505232002 | 24 | 91 | 0.0 | 6.4 | 0.00 | 0.00 | 0.00 | 41 | 1013.0 |
| 20260505231502 | 25 | 85 | 0.0 | 6.4 | 0.00 | 0.00 | 0.00 | 41 | 1013.0 |
| 20260505231002 | 25 | 104 | 0.0 | 6.4 | 0.00 | 0.00 | 0.00 | 40 | 1013.0 |
| 20260505230502 | 25 | 74 | 0.0 | 3.2 | 0.00 | 0.00 | 0.00 | 41 | 1013.2 |
| 20260505230002 | 25 | 107 | 0.0 | 3.2 | 0.00 | 0.00 | 0.00 | 40 | 1013.1 |
| 20260505225502 | 25 | 91 | 0.0 | 3.2 | 0.00 | 0.00 | 0.00 | 40 | 1013.1 |
| 20260505225002 | 25 | 91 | 0.0 | 6.4 | 0.00 | 0.00 | 0.00 | 39 | 1013.1 |
| 20260505224502 | 25 | 88 | 0.0 | 6.4 | 0.00 | 0.00 | 0.00 | 39 | 1013.0 |
| 20260505224002 | 25 | 95 | 0.0 | 3.2 | 0.00 | 0.00 | 0.00 | 39 | 1013.2 |
| 20260505223502 | 25 | 101 | 0.0 | 3.2 | 0.00 | 0.00 | 0.00 | 40 | 1013.1 |
| 20260505223002 | 25 | 119 | 0.0 | 6.4 | 0.00 | 0.00 | 0.00 | 39 | 1013.1 |
| 20260505222502 | 25 | 124 | 0.0 | 6.4 | 0.00 | 0.00 | 0.00 | 39 | 1013.2 |
| 20260505222002 | 25 | 104 | 0.0 | 6.4 | 0.00 | 0.00 | 0.00 | 38 | 1013.3 |
| 20260505221502 | 25 | 106 | 0.0 | 6.4 | 0.00 | 0.00 | 0.00 | 38 | 1013.2 |
| 20260505221002 | 25 | 99 | 0.0 | 3.2 | 0.00 | 0.00 | 0.00 | 39 | 1013.1 |
| 20260505220502 | 25 | 96 | 0.0 | 6.4 | 0.00 | 0.00 | 0.00 | 38 | 1013.0 |
| 20260505220002 | 26 | 105 | 0.0 | 9.7 | 0.00 | 0.00 | 0.00 | 38 | 1013.3 |
| 20260505215502 | 26 | 119 | 0.0 | 9.7 | 0.00 | 0.00 | 0.00 | 38 | 1013.1 |
| 20260505215002 | 26 | 104 | 0.0 | 6.4 | 0.00 | 0.00 | 0.00 | 37 | 1013.1 |
| 20260505214502 | 26 | 102 | 0.0 | 6.4 | 0.00 | 0.00 | 0.00 | 37 | 1013.2 |
| 20260505214002 | 26 | 88 | 0.0 | 12.9 | 0.00 | 0.00 | 0.00 | 37 | 1013.1 |
| 20260505213502 | 26 | 97 | 0.0 | 12.9 | 0.00 | 0.00 | 0.00 | 35 | 1013.1 |
| 20260505213002 | 26 | 96 | 0.0 | 9.7 | 0.00 | 0.00 | 0.00 | 35 | 1013.1 |
| 20260505212501 | 26 | 96 | 0.0 | 9.7 | 0.00 | 0.00 | 0.00 | 36 | 1013.0 |
| 20260505212002 | 26 | 100 | 0.0 | 9.7 | 0.00 | 0.00 | 0.00 | 35 | 1013.1 |
| 20260505211502 | 27 | 99 | 0.0 | 12.9 | 0.00 | 0.00 | 0.00 | 34 | 1013.2 |
| 20260505211002 | 27 | 96 | 0.0 | 12.9 | 0.00 | 0.00 | 0.00 | 34 | 1013.2 |
| 20260505210502 | 27 | 84 | 3.2 | 6.4 | 0.00 | 0.00 | 0.00 | 34 | 1013.2 |
| 20260505210002 | 27 | 102 | 0.0 | 6.4 | 0.00 | 0.00 | 0.00 | 35 | 1013.2 |
| 20260505205501 | 27 | 107 | 0.0 | 6.4 | 0.00 | 0.00 | 0.00 | 34 | 1013.2 |
| 20260505205001 | 27 | 131 | 0.0 | 6.4 | 0.00 | 0.00 | 0.00 | 34 | 1013.4 |
| 20260505204501 | 27 | 115 | 3.2 | 6.4 | 0.00 | 0.00 | 0.00 | 33 | 1013.5 |
| 20260505204002 | 27 | 87 | 0.0 | 9.7 | 0.00 | 0.00 | 0.00 | 33 | 1013.4 |
| 20260505203502 | 27 | 99 | 0.0 | 12.9 | 0.00 | 0.00 | 0.00 | 33 | 1013.5 |
| 20260505203001 | 26 | 109 | 0.0 | 12.9 | 0.00 | 0.00 | 0.00 | 32 | 1013.3 |
| 20260505202501 | 26 | 110 | 0.0 | 9.7 | 0.00 | 0.00 | 0.00 | 32 | 1013.4 |
| 20260505202001 | 26 | 121 | 1.6 | 6.4 | 0.00 | 0.00 | 0.00 | 33 | 1013.4 |
| 20260505201502 | 26 | 82 | 0.0 | 9.7 | 0.00 | 0.00 | 0.00 | 33 | 1013.4 |
| 20260505201002 | 26 | 90 | 0.0 | 9.7 | 0.00 | 0.00 | 0.00 | 32 | 1013.4 |
| 20260505200501 | 26 | 108 | 0.0 | 3.2 | 0.00 | 0.00 | 0.00 | 32 | 1013.5 |
| 20260505200017 | 26 | 92 | 0.0 | 9.7 | 0.00 | 0.00 | 0.00 | 32 | 1013.5 |
| 20260505195502 | 26 | 94 | 0.0 | 9.7 | 0.00 | 0.00 | 0.00 | 31 | 1013.7 |
| 20260505195001 | 27 | 89 | 0.0 | 9.7 | 0.00 | 0.00 | 0.00 | 31 | 1013.7 |
| 20260505194502 | 27 | 102 | 0.0 | 9.7 | 0.00 | 0.00 | 0.00 | 31 | 1013.8 |
| 20260505194001 | 27 | 90 | 0.0 | 9.7 | 0.00 | 0.00 | 0.00 | 31 | 1013.8 |
| 20260505193502 | 27 | 64 | 0.0 | 9.7 | 0.00 | 0.00 | 0.00 | 31 | 1013.8 |
| 20260505193001 | 27 | 105 | 0.0 | 12.9 | 0.00 | 0.00 | 0.00 | 30 | 1013.9 |
| 20260505192501 | 27 | 98 | 0.0 | 12.9 | 0.00 | 0.00 | 0.00 | 29 | 1014.0 |
| 20260505192001 | 27 | 90 | 0.0 | 19.3 | 0.00 | 0.00 | 0.00 | 29 | 1013.9 |
| 20260505191501 | 27 | 118 | 1.6 | 19.3 | 0.00 | 0.00 | 0.00 | 29 | 1013.9 |
| 20260505191001 | 27 | 82 | 1.6 | 9.7 | 0.00 | 0.00 | 0.00 | 29 | 1013.9 |
| 20260505190501 | 27 | 109 | 0.0 | 9.7 | 0.00 | 0.00 | 0.00 | 30 | 1014.1 |
| 20260505190001 | 27 | 85 | 0.0 | 9.7 | 0.00 | 0.00 | 0.00 | 30 | 1014.1 |
| 20260505185501 | 27 | 101 | 0.0 | 9.7 | 0.00 | 0.00 | 0.00 | 31 | 1014.2 |
| 20260505185001 | 27 | 108 | 0.0 | 9.7 | 0.00 | 0.00 | 0.00 | 30 | 1014.4 |
| 20260505184501 | 27 | 90 | 0.0 | 22.5 | 0.00 | 0.00 | 0.00 | 29 | 1014.4 |
| 20260505184001 | 27 | 111 | 0.0 | 22.5 | 0.00 | 0.00 | 0.00 | 28 | 1014.5 |
| 20260505183500 | 27 | 105 | 0.0 | 12.9 | 0.00 | 0.00 | 0.00 | 29 | 1014.7 |
| 20260505183001 | 27 | 100 | 0.0 | 12.9 | 0.00 | 0.00 | 0.00 | 29 | 1014.7 |
| 20260505182500 | 27 | 110 | 0.0 | 9.7 | 0.00 | 0.00 | 0.00 | 30 | 1014.7 |
| 20260505182001 | 27 | 98 | 0.0 | 9.7 | 0.00 | 0.00 | 0.00 | 28 | 1015.0 |
| 20260505181501 | 27 | 98 | 0.0 | 12.9 | 0.00 | 0.00 | 0.00 | 29 | 1015.0 |
| 20260505181000 | 27 | 109 | 0.0 | 22.5 | 0.00 | 0.00 | 0.00 | 28 | 1015.1 |
| 20260505180500 | 27 | 108 | 0.0 | 22.5 | 0.00 | 0.00 | 0.00 | 30 | 1015.0 |
| 20260505180000 | 27 | 102 | 0.0 | 6.4 | 0.00 | 0.00 | 0.00 | 30 | 1015.1 |
| 20260505175500 | 27 | 96 | 0.0 | 6.4 | 0.00 | 0.00 | 0.00 | 29 | 1015.1 |
| 20260505175000 | 27 | 138 | 0.0 | 6.4 | 0.00 | 0.00 | 0.00 | 31 | 1015.1 |
| 20260505174500 | 27 | 90 | 0.0 | 16.1 | 0.00 | 0.00 | 0.00 | 28 | 1015.1 |
| 20260505174002 | 27 | 109 | 0.0 | 16.1 | 0.00 | 0.00 | 0.00 | 30 | 1015.2 |
| 20260505173501 | 27 | 98 | 0.0 | 9.7 | 0.00 | 0.00 | 0.00 | 30 | 1015.3 |
| 20260505173001 | 27 | 90 | 0.0 | 9.7 | 0.00 | 0.00 | 0.00 | 30 | 1015.4 |
| 20260505172501 | 26 | 109 | 0.0 | 6.4 | 0.00 | 0.00 | 0.00 | 32 | 1015.3 |
| 20260505172000 | 26 | 114 | 0.0 | 6.4 | 0.00 | 0.00 | 0.00 | 32 | 1015.3 |
| 20260505171501 | 26 | 105 | 0.0 | 6.4 | 0.00 | 0.00 | 0.00 | 33 | 1015.4 |
| 20260505171001 | 26 | 96 | 0.0 | 9.7 | 0.00 | 0.00 | 0.00 | 33 | 1015.5 |
| 20260505170501 | 26 | 121 | 0.0 | 9.7 | 0.00 | 0.00 | 0.00 | 34 | 1015.3 |
| 20260505170001 | 26 | 122 | 0.0 | 6.4 | 0.00 | 0.00 | 0.00 | 33 | 1015.5 |
| 20260505165500 | 26 | 94 | 0.0 | 12.9 | 0.00 | 0.00 | 0.00 | 35 | 1015.5 |
| 20260505165000 | 26 | 91 | 0.0 | 12.9 | 0.00 | 0.00 | 0.00 | 35 | 1015.6 |
| 20260505164501 | 26 | 88 | 1.6 | 9.7 | 0.00 | 0.00 | 0.00 | 36 | 1015.8 |
| 20260505164002 | 26 | 117 | 0.0 | 9.7 | 0.00 | 0.00 | 0.00 | 33 | 1015.7 |
| 20260505163502 | 26 | 138 | 1.6 | 16.1 | 0.00 | 0.00 | 0.00 | 33 | 1015.7 |
| 20260505163000 | 26 | 131 | 0.0 | 16.1 | 0.00 | 0.00 | 0.00 | 35 | 1015.7 |
| 20260505162500 | 26 | 113 | 0.0 | 9.7 | 0.00 | 0.00 | 0.00 | 35 | 1015.7 |
| 20260505162000 | 25 | 86 | 0.0 | 9.7 | 0.00 | 0.00 | 0.00 | 36 | 1015.8 |
| 20260505161500 | 25 | 86 | 1.6 | 9.7 | 0.00 | 0.00 | 0.00 | 36 | 1015.8 |
| 20260505161001 | 26 | 107 | 0.0 | 6.4 | 0.00 | 0.00 | 0.00 | 37 | 1016.0 |
| 20260505160501 | 26 | 134 | 1.6 | 12.9 | 0.00 | 0.00 | 0.00 | 38 | 1016.2 |